Regional Weather Roundup
Issued by NWS

Home | Current Version | Previous Version | Text Only | Print | Product List | Glossary Off
Versions: 1 2 3 4 5 6 7 8 9 10 11 12 13 14 15 16 17 18 19 20 21 22 23 24 25 26 27 28 29 30 31 32 33 34 35 36 37 38 39 40 41 42 43 44 45 46 47 48 49 50

921
ASUS45 KCYS 292110
RWRWY

WYOMING REGIONAL WEATHER ROUNDUP
NATIONAL WEATHER SERVICE CHEYENNE WY
300 PM MDT SAT APR 29 2017

NOTE:  "FAIR" INDICATES FEW OR NO CLOUDS BELOW 12,000 FEET
WITH NO SIGNIFICANT WEATHER AND/OR OBSTRUCTIONS TO VISIBILITY.

WYZ001-292200-
YELLOWSTONE NATIONAL PARK

CITY           SKY/WX    TMP DP  RH WIND       PRES   REMARKS
LK YELLOWSTONE   N/A     38  21  50 VRB3      30.20F
W YELLOWSTONE  NOT AVBL

$$
WYZ002>013-054>058-071-098>099-292200-
NORTHERN WYOMING

CITY           SKY/WX    TMP DP  RH WIND       PRES   REMARKS
JACKSON        PTSUNNY   45  16  31 CALM      30.18F
CODY           FAIR      46  24  42 S9        30.21F
GREYBULL       FAIR      52  23  32 S10G16    30.19F
WORLAND        FAIR      49  28  44 SW9       30.21F
SHERIDAN       FAIR      43  28  55 SE13      30.22F
BUFFALO        FAIR      38  26  62 S17       30.23F WCI  28
GILLETTE       FAIR      37  28  70 SW8       30.25F WCI  31
HULETT         FAIR      50  21  32 NW7       30.23F
NEWCASTLE      FAIR      46  21  36 NW14G23   30.23F

$$
WYZ014>020-022>026-101>103-292200-
CENTRAL WYOMING

CITY           SKY/WX    TMP DP  RH WIND       PRES   REMARKS
BIG PINEY      CLOUDY    41  18  39 VRB6      30.21S
PINEDALE       CLOUDY    37  18  44 W6G17     30.21S WCI  33
DUBOIS         FAIR      41  19  42 SE6       30.19S
LANDER         FAIR      36  23  59 SE7       30.23F WCI  30
RIVERTON       FAIR      37  23  56 CALM      30.24F
CASPER         FAIR      44  16  32 VRB5      30.21F
DOUGLAS        FAIR      42  20  41 N7        30.23F

$$
WYZ021-027>030-104>119-292200-
SOUTHERN WYOMING

CITY           SKY/WX    TMP DP  RH WIND       PRES   REMARKS
EVANSTON       CLOUDY    36  21  54 NE12      30.23R WCI  28
KEMMERER         N/A     36  23  60 CALM      30.23F
FORT BRIDGER   CLOUDY    36  23  60 E3        30.26R
ROCK SPRINGS   CLOUDY    39  19  44 NE13G22   30.20S WCI  31
DIXON            N/A     43  19  37 N9G20     30.12F
RAWLINS        FAIR      36  20  52 NE12G20   30.17F WCI  28
SARATOGA       CLOUDY    36  19  51 N6        30.14F WCI  31
LARAMIE        CLOUDY    26  12  55 E5        30.16S WCI  20
CHEYENNE       CLOUDY    32  16  51 N16       30.17R WCI  21
TORRINGTON     FAIR      43  17  35 N15G21    30.20F
PINE BLUFFS    CLOUDY    37  14  38 N16G24    30.18S WCI  28

$$




USA.gov is the U.S. government's official web portal to all federal, state and local government web resources and services.